Location: Newark
(48.1500°N, 2.9667°W)
Time: 01:10:25
(UTC+00:00)

Altair - Pass Details

Date: 31 January 2020
Orbit: 1502 x 1682 km, 47.2° (Epoch: 19 February)

Event Time Altitude Azimuth Distance (km) Brightness Sun altitude
Rises 13:31:20 0° 291° (WNW) 4,939 10.1 22.8°
Reaches altitude 10° 13:34:45 10° 284° (WNW) 3,949 9.8 22.6°
Maximum altitude 13:43:54 40° 220° (SW) 2,288 9.9 22.1°
Drops below altitude 10° 13:52:54 10° 155° (SSE) 3,873 10.3 21.6°
Sets 13:56:13 0° 148° (SSE) 4,834 10.6 21.3°
